Weather Roundup
Issued by NWS

Home | Current Version | Previous Version | Graphics & Text | Print | Product List | Glossary Off
Versions: 1 2 3 4 5 6 7 8 9 10 11 12 13 14 15 16 17 18 19 20 21 22 23 24 25 26 27 28 29 30 31 32 33 34 35 36 37 38 39 40 41 42 43 44 45 46 47 48 49 50

000
NZUS93 KARX 271859
HRRWXR

CURRENT HOURLY OBSERVATIONS ACROSS
MUCH OF THE UPPER MISSISSIPPI VALLEY
NATIONAL WEATHER SERVICE LA CROSSE WI
200 PM CDT TUE JUN 27 2017


...SOUTHEAST MINNESOTA...


CITY           SKY/WX    TMP DP  RH WIND       PRES   REMARKS
ROCHESTER      SUNNY     72  42  34 S13G23    30.04F
ROCHESTER/MAYO FAIR      72  41  32 S9G21     30.04F
WINONA         SUNNY     73  43  33 S5        30.04S
AUSTIN         SUNNY     72  43  35 S12       30.02F
ALBERT LEA     SUNNY     73  39  29 S14G20    30.01F
DODGE CENTER   CLOUDY    73  39  29 S12       30.02F
PRESTON        SUNNY     71  42  34 SW12G17   30.05F
OWATONNA       MOSUNNY   73  43  33 S14G20    30.01F
FARIBAULT      MOSUNNY   75  41  29 S10G17    30.00F
$$

...ELSEWHERE IN MINNESOTA...


CITY           SKY/WX    TMP DP  RH WIND       PRES   REMARKS
MINNEAPOLIS    PTSUNNY   74  41  30 SW10G22   29.99F
INTNL FALLS    SUNNY     73  46  38 SW8       29.84F
DULUTH         MOSUNNY   72  45  37 SW12      29.94F
RED WING       SUNNY     75  37  25 S7G17     30.00F
REDWOOD FALLS  SUNNY     77  39  25 S20G28    29.92F
MANKATO        NOT AVBL
WORTHINGTON    SUNNY     73  46  38 S20G29    29.95F
FAIRMONT       MOSUNNY   74  44  34 S18       29.98F
$$

...SOUTHWEST WISCONSIN...


CITY           SKY/WX    TMP DP  RH WIND       PRES   REMARKS
LA CROSSE      SUNNY     78  45  30 VRB7      30.03F
PRAIRIE DU CHI SUNNY     73  41  31 S7        30.07F
BOSCOBEL       SUNNY     76  45  33 VRB7      30.07F
LONE ROCK      NOT AVBL
PLATTEVILLE    SUNNY     73  44  34 S10       30.09F
FORT MC COY    MOSUNNY   73  46  39 S9        30.06F
MAUSTON-NEW LI PTCLDY    72  47  40 SW5       30.05F
VIROQUA        FAIR      71  45  38 S8        30.07F
WIS DELLS      MOSUNNY   73  45  37 SW5       30.07F
$$

...ELSEWHERE IN WISCONSIN...


CITY           SKY/WX    TMP DP  RH WIND       PRES   REMARKS
MILWAUKEE      PTSUNNY   74  47  38 NW10      30.07F
MADISON        PTSUNNY   72  46  39 S6        30.07F
GREEN BAY      PTSUNNY   73  52  47 W9        30.01F
EAU CLAIRE     NOT AVBL
BLACK RVR FLS  FAIR      75  42  29 W7        30.03F
MEDFORD        SUNNY     68  46  44 W8        30.03F
WAUSAU         SUNNY     71  44  37 W12       30.02F
WIS RAPIDS     MOSUNNY   74  47  38 W12       30.05F
MARSHFIELD     PTSUNNY   71  46  40 SW7       30.03F
RICE LAKE      SUNNY     71  43  36 SW13      30.02F
$$

...NORTHEAST IOWA...


CITY           SKY/WX    TMP DP  RH WIND       PRES   REMARKS
WATERLOO       SUNNY     74  42  31 S9        30.05F
DUBUQUE        SUNNY     72  45  37 VRB7G17   30.09F
DECORAH        SUNNY     72  45  37 VRB7G15   30.05F
MASON CITY     SUNNY     75  42  30 S12G23    30.04F
CHARLES CITY   SUNNY     73  41  31 S14       30.05F
OELWEIN        NOT AVBL
$$

...ELSEWHERE IN IOWA...


CITY           SKY/WX    TMP DP  RH WIND       PRES   REMARKS
DES MOINES     PTSUNNY   77  48  35 S12G21    30.04F
IOWA CITY      SUNNY     75  45  34 SE12      30.09F
FORT DODGE     SUNNY     75  43  31 S9G20     30.04S
MARSHALLTOWN   SUNNY     75  45  34 S16G22    30.05F
CEDAR RAPIDS   SUNNY     73  47  39 S9        30.08F
$$

...NORTHERN ILLINOIS...


CITY           SKY/WX    TMP DP  RH WIND       PRES   REMARKS
CHICAGO-OHARE  MOSUNNY   76  43  30 VRB6      30.09F
CHICAGO-MIDWAY MOSUNNY   73  44  35 W6        30.09F
MOLINE         SUNNY     74  44  34 S6        30.10F
ROCKFORD       PTSUNNY   75  46  35 VRB3      30.10F
PEORIA         SUNNY     74  43  32 VRB5G17   30.12F
$$

NOTE: "FAIR" INDICATES FEW OR NO CLOUDS BELOW 12,000 FEET WITH NO
SIGNIFICANT WEATHER AND/OR OBSTRUCTIONS TO VISIBILITY. WIND
SPEEDS ARE IN MILES-PER-HOUR.




USA.gov is the U.S. government's official web portal to all federal, state and local government web resources and services.